TimeAKST,TemperatureF,Dew PointF,Humidity,Sea Level PressureIn,VisibilityMPH,Wind Direction,Wind SpeedMPH,Gust SpeedMPH,PrecipitationIn,Events,Conditions,WindDirDegrees,DateUTC
12:53 AM,-29.9,-9999,N/A,29.46,10.0,NNW,5.8,-,N/A,,Partly Cloudy,330,2014-01-12 09:53:00
1:53 AM,-31.0,-9999,N/A,29.45,10.0,North,4.6,-,N/A,,Partly Cloudy,360,2014-01-12 10:53:00
2:53 AM,-32.1,-9999,N/A,29.44,10.0,Calm,Calm,-,N/A,,Partly Cloudy,0,2014-01-12 11:53:00
3:53 AM,-33.0,-9999,N/A,29.43,10.0,North,4.6,-,N/A,,Partly Cloudy,350,2014-01-12 12:53:00
4:53 AM,-29.9,-9999,N/A,29.42,10.0,Calm,Calm,-,N/A,,Partly Cloudy,0,2014-01-12 13:53:00
5:53 AM,-38.0,-9999,N/A,29.43,10.0,SSE,3.5,-,N/A,,Partly Cloudy,160,2014-01-12 14:53:00
6:53 AM,-40.0,-9999,N/A,29.42,10.0,Calm,Calm,-,N/A,,Partly Cloudy,0,2014-01-12 15:53:00
7:53 AM,-40.0,-9999,N/A,29.42,10.0,South,3.5,-,N/A,,Partly Cloudy,170,2014-01-12 16:53:00
8:53 AM,-41.1,-9999,N/A,29.42,10.0,Calm,Calm,-,N/A,,Partly Cloudy,0,2014-01-12 17:53:00
9:53 AM,-41.1,-9999,N/A,29.42,10.0,Calm,Calm,-,N/A,,Partly Cloudy,0,2014-01-12 18:53:00
10:53 AM,-42.0,-9999,N/A,29.44,10.0,Calm,Calm,-,N/A,Fog,Patches of Fog,0,2014-01-12 19:53:00
11:53 AM,-43.1,-9999,N/A,29.45,10.0,Calm,Calm,-,N/A,Fog,Patches of Fog,0,2014-01-12 20:53:00
12:53 PM,-41.1,-9999,N/A,29.45,10.0,Calm,Calm,-,N/A,Fog,Patches of Fog,0,2014-01-12 21:53:00
1:53 PM,-41.1,-9999,N/A,29.46,10.0,Calm,Calm,-,N/A,,Clear,0,2014-01-12 22:53:00
2:53 PM,-41.1,-9999,N/A,29.46,10.0,Calm,Calm,-,N/A,,Clear,0,2014-01-12 23:53:00
3:53 PM,-43.1,-9999,N/A,29.46,10.0,Calm,Calm,-,N/A,,Clear,0,2014-01-13 00:53:00
4:40 PM,-43.6,-9999,N/A,29.36,10.0,Calm,Calm,-,N/A,Fog,Patches of Fog,0,2014-01-13 01:40:00
4:53 PM,-44.0,-9999,N/A,29.47,10.0,Calm,Calm,-,N/A,Fog,Patches of Fog,0,2014-01-13 01:53:00
5:53 PM,-44.0,-9999,N/A,29.48,10.0,Calm,Calm,-,N/A,Fog,Patches of Fog,0,2014-01-13 02:53:00
6:53 PM,-45.0,-9999,N/A,29.50,10.0,Calm,Calm,-,N/A,Fog,Patches of Fog,0,2014-01-13 03:53:00
7:53 PM,-45.0,-9999,N/A,29.52,4.0,Calm,Calm,-,N/A,,Partly Cloudy,0,2014-01-13 04:53:00
8:53 PM,-44.0,-9999,N/A,29.53,5.0,Calm,Calm,-,N/A,,Scattered Clouds,0,2014-01-13 05:53:00
9:53 PM,-45.0,-9999,N/A,29.55,6.0,Calm,Calm,-,N/A,,Scattered Clouds,0,2014-01-13 06:53:00
10:53 PM,-45.0,-9999,N/A,29.56,7.0,Calm,Calm,-,N/A,Fog,Patches of Fog,0,2014-01-13 07:53:00
11:53 PM,-45.0,-9999,N/A,29.58,10.0,Calm,Calm,-,N/A,Fog,Patches of Fog,0,2014-01-13 08:53:00